User: anonymous   Login
Location: Unspecified
(0.0000°N, 0.0000°E)
Time: 20:13:40
(UTC+02:00)
Language:

ARIANE 5 R/B - Orbit

View from above orbital plane
View from above orbital plane
View from above satellite
View from above satellite

Ground track
Ground track

The orbit data is extracted from the following two-line orbital elements,

1 28379U 04027B   15212.18469699 -.00000191  00000-0 -52095-2 0  9991
2 28379 006.6544 202.2673 7279499 334.0689 231.5446 02.07922261 83847
Epoch (UTC): 31 July 2015 04:25:57
Eccentricity: 0.7279499
inclination: 6.6544°
perigee height: 676 km
apogee height: 38427 km
right ascension of ascending node: 202.2673°
argument of perigee: 334.0689°
revolutions per day: 2.07922261
mean anomaly at epoch: 231.5446°
orbit number at epoch: 8384

The dashed part of the orbit path shows where the satellite is in the earth's shadow,  

DLR